カタログに戻る

STARLINK-32571

運用中通信VLEO
NORAD 62055·PAYLOAD·🇺🇸 United States

打ち上げ Nov 21, 2024 から Cape Canaveral Space Force Station

Loading…

次のパス (今後24時間)

TLE

最新Source: CelesTrak SupGP

元期: Sep 14, 2026, 21:12 UTC

1 62055C 24216Z   26257.88381944  .00022882  00000+0  82899-3 0  2577
2 62055  42.9997 267.3219 0001133 272.1209 191.9458 15.27558803    13

AllMySatでSTARLINK-32571をリアルタイム追跡

Download on the App Store